Location: Quebec
(46.8000°N, 71.2500°W)
Time: 09:00:06
(UTC-04:00)

Tiangong 2 - Pass Details

Date: 13 October 2017
Orbit: 388 x 392 km, 42.8° (Epoch: 18 October)

Event Time Altitude Azimuth Distance (km) Brightness Sun altitude
Exits shadow 05:53:32 18° 240° (WSW) 1,025 2.7 -12.2°
Maximum altitude 05:55:29 40° 178° (S) 595 2.0 -11.9°
Drops below altitude 10° 05:58:31 10° 107° (ESE) 1,423 5.2 -11.4°
Sets 06:00:40 0° 100° (E) 2,279 7.0 -11.0°
